CYCBCYHK

Guest
Details From CYCB - CAMBRIDGE BAY
To CYHK - Gjoa Haven
Flight Number -
Tags generated
Created
Modified
Stats Distance 203 nm / 377 km
Max Altitude 1,700 ft / 518 m
Waypoints 4
Social Downloads 0
Likes 0
Share VATSIM

Download

Looking for another format? Having issues loading an existing format? Contact us
Advertisement - Login to hide

Notes

Basic altitude profile: - Ascent Rate: 2500ft/min - Ascent Speed: 250kts - Cruise Altitude: 35000ft - Cruise Speed: 420kts - Descent Rate: 1500ft/min - Descent Speed: 250kts Options: - Use NATs: yes - Use PACOTS: yes - Use low airways: yes - Use high airways: yes

Route

CYCB CB RR30 YHK CYHK

ID Type Via Altitude Latitude Longitude Leg Dist Tot Dist Heading (true) Name
O CYCB APT - 0 ft / 0 m 69.10806˚ -105.13833˚ - 0 nm - CAMBRIDGE BAY
CB NDB - 900 ft / 274 m 69.11478˚ -105.01592˚ 2 nm 2 nm 81° / 81° CAMBRIDGE BAY NDB
YHK NDB RR30 (AWY-LO) 1,700 ft / 518 m 68.62611˚ -95.85833˚ 200 nm 202 nm 94° / 103° GJOA HAVEN NDB
O CYHK APT - 0 ft / 0 m 68.63545˚ -95.85024˚ 0 nm 203 nm 18° / 18° Gjoa Haven

Altitude Profile

Advertisement - Login to hide

Weather


0- 5 10 15 20 25 30 35+ Temperature / ° C

Clouds and Precipitation
Forecast for 2017-12-14 06:00 UTC. Updated an hour ago

Ground ~20,000 ft ~40,000 ft Winds

CYCB

Details ICAO CYCB (YCB)
Name CAMBRIDGE BAY
Region Canada
Timezone America/Cambridge_Bay (UTC-7.0)
Stats Elevation 90 ft / 27 m (AMSL)
Location 69.108056° -105.138334°
Runways 1
Magnetic Variation 6.949° E

METAR

CYCB 140400Z 31013KT 4SM -SN BR DRSN FEW005 FEW020 BKN040 M23/M25 A3007 RMK FG1ST1SC1SC3 ST TR FROIN VIS NE-SE 2 SLP191

Decode

TAF

TAF AMD TAF AMD CYCB 140309Z 1403/1413 31012KT 3SM -SN BR FEW004 BKN020 OVC050 TEMPO 1403/1413 P6SM -SN SCT020 BKN050 RMK NXT FCST BY 140700Z

Decode

Departure Runways

ID Width Length Bearing (true) Bearing (mag) Surface Threshold Offset Overrun Length
13T 150 ft / 46 m 5,006 ft / 1,526 m 127.39° 120.44° Gravel 0 ft / 0 m 0 ft / 0 m
31T 150 ft / 46 m 5,006 ft / 1,526 m 307.42° 300.47° Gravel 0 ft / 0 m 100 ft / 30 m

CYHK

Details ICAO CYHK (YHK)
Name Gjoa Haven
Region Canada
Timezone America/Cambridge_Bay (UTC-7.0)
Stats Elevation 154 ft / 47 m (AMSL)
Location 68.635447° -95.850245°
Runways 1
Magnetic Variation 7.304° W

METAR

CYHK 140400Z AUTO 31009KT 4SM BR CLR M27/M29 A2992 RMK SLP140

Decode

TAF

TAF AMD TAF AMD CYHK 140235Z 1402/1412 28008KT P6SM SCT030 BKN100 TEMPO 1402/1412 2SM -SN BR FEW006 OVC015 RMK FCST BASED ON AUTO OBS. AUTO OBS NON-REPRESENTATIVE OF CRNT WX. NXT FCST BY 140600Z

Decode

Destination Runways

ID Width Length Bearing (true) Bearing (mag) Surface Threshold Offset Overrun Length
13T 98 ft / 30 m 4,465 ft / 1,361 m 126.79° 134.09° Gravel 0 ft / 0 m 0 ft / 0 m
31T 98 ft / 30 m 4,465 ft / 1,361 m 306.81° 314.11° Gravel 0 ft / 0 m 0 ft / 0 m

Popular Alternatives